Flag for Germany Weather past 2 weeks in Krefeld, North Rhine-Westphalia, Germany

45 °F

Partly cloudy.

Feels Like: 39 °F
Forecast: 36 / 46 °F
Wind: 10 mph from West

Location: Monchengladbach Airport

Current Time: Nov 25, 2015 at 3:26:49 PM

Latest Report: Nov 25, 2015 at 2:50 PM

Visibility: N/A

Pressure: 29.68 "Hg

Humidity: 93%

Dew point: 43 °F

Location of KrefeldLocation

Historic Weather in Krefeld — Graph


Krefeld temperature yesterday

Maximum temperature yesterday: 39 °F (at 9:50 AM)
Minimum temperature yesterday: 34 °F (at 5:20 PM)
Average temperature yesterday: 37 °F

Past Weeks' High & Low Weather Summary

High63 °F (Nov 15, 12:20 PM)100% (Nov 12, 8:50 AM)30.30 "Hg (Nov 12, 8:50 AM)
Low32 °F (Nov 23, 8:50 AM)63% (Nov 13, 3:50 PM)29.39 "Hg (Nov 21, 12:20 PM)
Average50 °F84%29.96 "Hg
* Reported Nov 10 1:20 PM — Nov 25 1:50 PM, Krefeld, Weather by CustomWeather, © 2015

Note: Actual official high and low records may vary slightly from our data, if they occured in-between our weather recording intervals... More about our weather records


Krefeld weather history for previous 24 hours

Time TempWeatherWind HumidityBarometerVisibility
1:50 PM
Wed, Nov 25
45 °FPassing clouds.9 mph93%29.68 "HgN/A
1:20 PM45 °FPartly cloudy.10 mph93%29.68 "HgN/A
12:50 PM45 °FPassing clouds.7 mph93%29.68 "HgN/A
12:20 PM43 °FLight rain. Fog.10 mph100%29.68 "Hg3 mi
11:50 AM45 °FLight rain. Partly cloudy.8 mph93%29.68 "HgN/A
11:20 AM45 °FPartly cloudy.9 mph93%29.68 "HgN/A
10:50 AM45 °FPassing clouds.8 mph93%29.68 "HgN/A
10:20 AM43 °FPassing clouds.6 mph100%29.68 "HgN/A
9:50 AM43 °FPartly cloudy.3 mph100%29.68 "Hg5 mi
9:20 AM43 °FLight rain. Passing clouds.8 mph100%29.71 "Hg2 mi
8:50 AM43 °FPassing clouds.5 mph100%29.68 "HgN/A
7:50 PM
Tue, Nov 24
37 °FLight rain. Passing clouds.7 mph100%29.83 "Hg4 mi
7:20 PM36 °FLight rain. Passing clouds.7 mph100%29.83 "Hg4 mi
6:50 PM36 °FLight rain. Passing clouds.7 mph100%29.86 "Hg4 mi
6:20 PM34 °FPartly cloudy.8 mph100%29.86 "Hg4 mi
5:50 PM34 °FLight rain. Partly cloudy.9 mph100%29.86 "Hg4 mi
5:20 PM34 °FLight snow. Partly cloudy.8 mph100%29.86 "Hg5 mi
4:50 PM36 °FRain. Passing clouds.8 mph100%29.89 "Hg2 mi
4:20 PM36 °FRain. Passing clouds.12 mph100%29.89 "Hg2 mi
3:50 PM36 °FPassing clouds.13 mph100%29.89 "Hg2 mi
3:20 PM36 °FRain. Passing clouds.10 mph100%29.92 "Hg5 mi
Weather by CustomWeather, © 2015

See weather overviewHow to use our weather pages